AirNav   Air Wisconsin Up To $57,000 Bonus
 
 1020 users online  

AL32 Flying BK Ranch Airport
Cedar Bluff, Alabama, USA

GOING TO CEDAR BLUFF?


FAA INFORMATION EFFECTIVE 30 DECEMBER 2021

Location

FAA Identifier: AL32
Lat/Long: 34-19-21.3200N 085-38-37.3700W
34-19.355333N 085-38.622833W
34.3225889,-85.6437139
(estimated)
Elevation: 670 ft. / 204 m (estimated)
Variation: 03W (2000)
From city: 6 miles W of CEDAR BLUFF, AL
Time zone: UTC -6 (UTC -5 during Daylight Saving Time)
Zip code: 35973

Airport Operations

Airport use: Private use. Permission required prior to landing
Activation date: 10/2002
Control tower: no
ARTCC: ATLANTA CENTER
FSS: ANNISTON FLIGHT SERVICE STATION
Attendance: UNATNDD
Wind indicator: yes
Segmented circle: no

Airport Communications

WX AWOS-3PT at 4A9 (10 nm NW): 119.025 (256-845-5397)

Nearby radio navigation aids

VOR radial/distance  VOR name  Freq  Var
RMGr289/27.7ROME VORTAC115.4001E
GADr044/30.1GADSDEN VOR/DME112.3002E

Airport Services

Runway Information

Runway 4/22

Dimensions: 2600 x 75 ft. / 792 x 23 m
Surface: turf
Runway edge markings: RWY EDGE MKD WITH WHITE DISKS FLUSH WITH GND; SPACED 100 FT.
RUNWAY 4  RUNWAY 22
Traffic pattern: leftleft
Displaced threshold: 481 ft.
DSPLCD THR MKD WITH WHITE DISC FLUSH WITH GND.
541 ft.
DSPLCD THR MKD WITH WHITE DISC FLUSH WITH GND.
Obstructions: 30 ft. trees, 500 ft. from runway, 200 ft. right of centerline50 ft. tree, 996 ft. from runway
30 FT PLINE 1000 FT FROM THR.

Airport Ownership and Management from official FAA records

Ownership: Privately-owned
Owner: WILLIAM R. DURHAM
3996 CANTON HWY
CUMMING, GA 30040
Phone (404) 626-0822
Manager: WILLIAM R. DURHAM
3996 CANTON HWY
CUMMING, GA 30040
Phone (404) 626-0822

Airport Operational Statistics

Aircraft based on the field: 4
Single engine airplanes: 3
Ultralights: 1
    

Additional Remarks

FOR CD CTC ATLANTA ARTCC AT 770-210-7692.
PPR RQR TO LND.

Instrument Procedures

There are no published instrument procedures at AL32.

Some nearby airports with instrument procedures:

4A9 - Isbell Field Airport (10 nm NW)
KPYP - Centre-Piedmont-Cherokee County Regional Airport (14 nm S)
KRMG - Richard B. Russell Regional Airport - J.H. Towers Field (24 nm E)
9A5 - Barwick Lafayette Airport (28 nm NE)
4A6 - Scottsboro Municipal Airport-Word Field (28 nm NW)
 
Loc | Ops | Rwys | IFR | FBO | Links
Com | Nav | Svcs | Stats | Notes
Area around AL32 (Flying BK Ranch Airport)
 
Road maps at: MapQuest Bing Google
 
Aerial photo
WARNING: Photo may not be current or correct
Aerial photo of AL32 (Flying BK Ranch Airport)
Photo taken 04-Oct-2008

Do you have a better or more recent aerial photo of Flying BK Ranch Airport that you would like to share? If so, please send us your photo.

 
Sectional chart

 
Airport distance calculator
Flying to Flying BK Ranch Airport? Find the distance to fly.

From to AL32

Sunrise and sunset
Times for 16-Jan-2022
 Local
(UTC-6)
 Zulu
(UTC)
Morning civil twilight06:2212:22
Sunrise06:4912:49
Sunset16:5522:55
Evening civil twilight17:2323:23

Current date and time
Zulu (UTC)  16-Jan-2022 19:12:39
Local (UTC-6)  16-Jan-2022 13:12:39
 
METAR
K4A9 
10nm NW 
161855Z AUTO 00000KT 1 3/4SM -SN BR OVC010 00/00 A2955 RMK AO2 VIS 1V2 1/2 P0004 T00040001
TAF
KANB 
46nm S 
161735Z 1618/1718 03009KT P6SM -RA OVC015 FM162000 30008G18KT 5SM -RASN BR OVC007 FM170000 29014G20KT P6SM OVC007 FM171100 26009KT P6SM OVC012
KCHA 
48nm NE 
161741Z 1618/1718 36010KT 3SM -RASNPL BKN009 OVC020 FM161900 36006KT 4SM -RASN OVC008 FM162100 34006KT 4SM -RASN BR OVC005 FM162300 30008KT 3SM -SN BR OVC005 FM170100 28010G20KT 6SM -SN BR BKN009 FM170300 29018G25KT P6SM SCT015 OVC030 FM171000 27006KT P6SM OVC020 FM171200 26008KT 6SM BR OVC007 FM171700 29011KT P6SM OVC015
KASN 
50nm SW 
161735Z 1618/1718 03008KT P6SM -RA OVC015 FM162000 30008G18KT 5SM -RASN BR OVC007 FM170000 29014G20KT P6SM OVC007 FM171100 26009KT P6SM OVC012
NOTAMs
Click for the latest NOTAMs
NOTAMs are issued by the DoD/FAA and will open in a separate window not controlled by AirNav.

 

 
 

Would you like to see your business listed on this page?

 If your business provides an interesting product or service to pilots, flight crews, aircraft, or users of the Flying BK Ranch Airport, you should consider listing it here.  To start the listing process, click on the button below
 
Add a business
 

Other Pages about Flying BK Ranch Airport

Update a link
 
Copyright © AirNav, LLC. All rights reserved. Privacy Policy  Contact